EST,Max TemperatureF,Mean TemperatureF,Min TemperatureF,Max Dew PointF,MeanDew PointF,Min DewpointF,Max Humidity, Mean Humidity, Min Humidity, Max Sea Level PressureIn, Mean Sea Level PressureIn, Min Sea Level PressureIn, Max VisibilityMiles, Mean VisibilityMiles, Min VisibilityMiles, Max Wind SpeedMPH, Mean Wind SpeedMPH, Max Gust SpeedMPH,PrecipitationIn, CloudCover, Events, WindDirDegrees
2012-1-1,62,49,36,48,33,13,73,54,35,30.16,29.99,29.86,10,9,0,25,10,39,0.01,6,,245
2012-1-2,36,28,19,19,15,8,77,58,38,30.26,30.13,30.06,10,6,0,22,9,35,0.01,7,Snow,283
2012-1-3,27,22,17,12,11,8,80,65,50,30.42,30.32,30.21,10,8,2,15,6,23,T,6,Snow,273
2012-1-4,45,31,17,19,12,8,67,47,27,30.32,30.18,30.04,10,10,10,14,5,23,0.00,1,,219
2012-1-5,51,41,30,26,21,18,69,49,29,30.19,30.10,30.03,10,10,10,9,4,17,0.00,0,,229
2012-1-6,65,54,42,33,26,22,49,35,21,30.04,29.97,29.90,10,10,10,16,6,25,0.00,0,,220
2012-1-7,63,53,43,48,38,19,77,54,30,30.16,29.98,29.87,10,10,10,15,6,24,0.00,5,,256
2012-1-8,49,41,33,29,25,22,70,56,42,30.29,30.24,30.16,10,10,10,8,3,13,0.00,2,,43
2012-1-9,42,39,36,38,33,25,92,73,54,30.20,30.13,30.08,10,6,0,7,2,12,0.07,7,Fog-Rain,223
2012-1-10,46,39,31,37,33,29,100,79,58,30.16,30.08,29.91,10,5,0,6,2,9,0.00,3,Fog,207
2012-1-11,58,49,39,52,44,32,96,82,67,29.87,29.57,29.44,10,5,0,14,5,21,1.00,8,Fog-Rain,113
2012-1-12,49,36,22,46,33,14,92,82,71,29.76,29.57,29.41,10,5,0,25,9,41,0.44,8,Fog-Rain-Snow,250
2012-1-13,23,20,17,18,15,9,84,76,67,30.14,29.91,29.73,10,4,0,18,8,31,0.03,8,Fog-Snow,246
2012-1-14,33,27,20,25,21,15,85,69,53,30.20,30.13,30.05,10,6,0,12,2,22,0.11,7,Fog-Snow,235
2012-1-15,31,28,25,25,22,19,88,79,69,30.49,30.37,30.14,10,8,2,10,3,14,0.02,6,Snow,266
2012-1-16,53,40,27,28,23,19,75,56,36,30.36,30.21,30.05,10,10,10,13,6,24,T,4,Rain,199
2012-1-17,58,47,35,52,42,24,89,65,41,30.10,29.90,29.75,10,9,0,28,10,49,0.46,8,Fog-Rain,241
2012-1-18,35,30,24,25,19,13,78,66,53,30.25,30.18,30.12,10,6,0,14,3,20,T,7,Snow,304
2012-1-19,41,31,20,19,17,13,77,55,33,30.13,30.04,29.95,10,9,1,12,4,22,0.00,2,,218
2012-1-20,44,37,30,38,28,21,85,66,47,30.14,30.02,29.81,10,10,10,7,2,12,0.03,8,Rain,56
2012-1-21,51,40,29,48,36,27,96,89,82,30.18,29.94,29.75,10,3,0,13,4,18,1.52,8,Fog-Rain-Thunderstorm,349
2012-1-22,56,43,29,45,37,27,100,83,66,30.18,30.08,29.93,10,5,0,8,2,15,0.00,5,Fog,136
2012-1-23,64,54,44,51,45,35,89,69,49,30.03,29.85,29.73,10,8,0,20,6,35,0.46,5,Fog-Rain,241
2012-1-24,56,46,35,36,32,29,85,65,44,30.32,30.19,30.04,10,10,10,13,3,17,0.00,0,,258
2012-1-25,49,40,30,37,31,26,85,71,56,30.32,30.23,30.09,10,8,5,8,3,14,0.09,3,Rain,44
2012-1-26,63,52,40,55,50,38,93,79,64,30.05,29.77,29.49,10,9,2,14,5,24,0.41,8,Rain,140
2012-1-27,57,47,37,54,40,30,93,85,76,30.09,29.78,29.50,10,9,2,18,7,29,0.19,8,Rain,262
2012-1-28,48,40,31,36,25,14,89,61,33,30.32,30.14,29.99,10,10,5,18,6,28,0.01,3,Rain,251
2012-1-29,49,38,26,18,16,13,68,47,25,30.32,30.27,30.17,10,10,10,17,7,31,0.00,1,,238
2012-1-30,60,43,26,25,20,16,63,44,24,30.34,30.29,30.23,10,10,10,15,5,30,0.00,0,,201
2012-1-31,67,56,45,22,20,16,37,26,15,30.27,30.19,30.11,10,10,10,16,5,28,0.00,5,,206